Aiken, SC

4:34 AM EDT on August 26, 2016 (GMT -0400)
Aiken Municipal

Weather History for KAIK - January, 2013

Change the Weather History Date:

Tuesday, January 29, 2013

  Actual Average Record
Temperature  
Mean Temperature 58 °F -  
Max Temperature 77 °F 60 °F 77 °F (2013)
Min Temperature 39 °F 33 °F 21 °F (2014)
Degree Days  
Heating Degree Days 7    
Growing Degree Days 8 (Base 50)    
Moisture  
Dew Point 58 °F    
Average Humidity 80    
Maximum Humidity 100    
Minimum Humidity 57    
Precipitation  
Precipitation 0.00 in - - ()
Sea Level Pressure  
Sea Level Pressure 30.21 in    
Wind  
Wind Speed 3 mph (SSE)    
Max Wind Speed 15 mph    
Max Gust Speed 18 mph    
Visibility 7 miles    
Events Fog , Rain    
Averages and records for this station are not official NWS values.
T = Trace of Precipitation, MM = Missing Value Source: NWS Daily Summary

Daily Weather History Graph

Daily Weather History Graph

Search for Another Location

Airport or City:

Trip Planner

Search our weather history database for the weather conditions in past years. The results will help you decide how hot, cold, wet, or windy it might be!

Date:

Astronomy

Jan. 29, 2013 Rise Set
Actual Time 7:24 AM EST 5:55 PM EST
Civil Twilight 6:58 AM EST 6:21 PM EST
Nautical Twilight 6:28 AM EST 6:51 PM EST
Astronomical Twilight 5:59 AM EST 7:20 PM EST
Moon 8:38 PM EST (1/29) 8:31 AM EST (1/29)
Length of Visible Light 11h 22m
Length of Day
10h 30m
Waning Gibbous, 94% of the Moon is Illuminated
Jan 29
Waning Gibbous
Feb 3
Last Quarter
Feb 10
New
Feb 17
First Quarter
Feb 25
Full

Hourly Weather History & Observations

Time (EST) Temp. Windchill Dew Point Humidity Pressure Visibility Wind Dir Wind Speed Gust Speed Precip Events Conditions
12:15 AM 41.0 °F - 41.0 °F 100% 30.32 in 4.0 mi Calm Calm - N/A   Clear
12:35 AM 41.0 °F - - N/A% 30.32 in 5.0 mi Calm Calm - N/A   Haze
12:55 AM 41.0 °F - - N/A% 30.31 in 5.0 mi Calm Calm - N/A   Haze
1:15 AM 42.8 °F - - N/A% 30.31 in 4.0 mi Calm Calm - N/A   Haze
1:35 AM 42.8 °F - - N/A% 30.31 in 4.0 mi Calm Calm - N/A   Haze
1:55 AM 41.0 °F - - N/A% 30.30 in 5.0 mi Calm Calm - N/A   Haze
2:15 AM 41.0 °F - - N/A% 30.30 in 3.0 mi Calm Calm - N/A   Clear
2:35 AM 39.2 °F - - N/A% 30.30 in 4.0 mi Calm Calm - N/A   Haze
2:55 AM 39.2 °F - - N/A% 30.30 in 4.0 mi Calm Calm - N/A   Haze
3:15 AM 41.0 °F - - N/A% 30.29 in 5.0 mi Calm Calm - N/A   Haze
3:35 AM 41.0 °F - - N/A% 30.28 in 5.0 mi Calm Calm - N/A   Haze
3:55 AM 41.0 °F - 41.0 °F 100% 30.28 in 5.0 mi Calm Calm - N/A   Scattered Clouds
4:15 AM 41.0 °F - 41.0 °F 100% 30.28 in 5.0 mi Calm Calm - N/A   Clear
4:35 AM 42.8 °F 38.6 °F 42.8 °F 100% 30.27 in 4.0 mi SSE 6.9 mph - N/A   Clear
4:55 AM 41.0 °F - - N/A% 30.28 in 4.0 mi Calm Calm - N/A   Haze
5:15 AM 41.0 °F - - N/A% 30.27 in 4.0 mi Calm Calm - N/A   Haze
5:35 AM 41.0 °F - - N/A% 30.28 in 5.0 mi Calm Calm - N/A   Haze
5:55 AM 39.2 °F 37.0 °F - N/A% 30.28 in 4.0 mi ENE 3.5 mph - N/A   Haze
6:15 AM 41.0 °F - - N/A% 30.27 in 4.0 mi Calm Calm - N/A   Haze
6:35 AM 42.8 °F 41.1 °F - N/A% 30.26 in 4.0 mi East 3.5 mph - N/A   Haze
6:55 AM 42.8 °F - - N/A% 30.27 in 4.0 mi Calm Calm - N/A   Haze
7:15 AM 42.8 °F - - N/A% 30.28 in 4.0 mi Calm Calm - N/A   Haze
7:55 AM 44.6 °F - 44.6 °F 100% 30.28 in 3.0 mi Calm Calm - N/A   Overcast
8:15 AM 44.6 °F - 44.6 °F 100% 30.28 in 4.0 mi Calm Calm - N/A   Overcast
8:35 AM 46.4 °F - 46.4 °F 100% 30.28 in 2.5 mi Calm Calm - N/A   Overcast
8:55 AM 48.2 °F - - N/A% 30.28 in 0.2 mi Calm Calm - N/A Fog Fog
9:15 AM 50.0 °F - - N/A% 30.28 in 0.2 mi Calm Calm - N/A Fog Fog
9:35 AM 50.0 °F - - N/A% 30.28 in 0.2 mi Calm Calm - N/A Fog Fog
9:55 AM 53.6 °F - - N/A% 30.28 in 0.2 mi Calm Calm - N/A Rain Light Rain
10:15 AM 53.6 °F - - N/A% 30.28 in 0.5 mi WSW 4.6 mph - N/A Fog Fog
10:35 AM 55.4 °F - - N/A% 30.28 in 3.0 mi West 3.5 mph - N/A   Overcast
10:55 AM 59.0 °F - 59.0 °F 100% 30.27 in 5.0 mi Calm Calm - N/A   Scattered Clouds
11:15 AM 62.6 °F - 60.8 °F 94% 30.26 in 5.0 mi SW 6.9 mph - N/A   Scattered Clouds
11:35 AM 66.2 °F - 60.8 °F 83% 30.25 in 7.0 mi SSW 5.8 mph - N/A   Scattered Clouds
11:55 AM 69.8 °F - 60.8 °F 73% 30.25 in 10.0 mi South 5.8 mph - N/A   Clear
12:15 PM 69.8 °F - 60.8 °F 73% 30.23 in 10.0 mi South 4.6 mph - N/A   Scattered Clouds
12:55 PM 73.4 °F - 60.8 °F 65% 30.21 in 10.0 mi South 8.1 mph - N/A   Mostly Cloudy
1:15 PM 73.4 °F - 60.8 °F 65% 30.20 in 10.0 mi SSW 12.7 mph 16.1 mph N/A   Scattered Clouds
1:35 PM 73.4 °F - 60.8 °F 65% 30.18 in 10.0 mi SW 12.7 mph 17.3 mph N/A   Scattered Clouds
1:55 PM 75.2 °F - 60.8 °F 61% 30.18 in 10.0 mi SSW 8.1 mph 16.1 mph N/A   Mostly Cloudy
2:15 PM 75.2 °F - 60.8 °F 61% 30.17 in 10.0 mi SSW 8.1 mph - N/A   Mostly Cloudy
2:35 PM 75.2 °F - 60.8 °F 61% 30.16 in 10.0 mi SSW 5.8 mph - N/A   Mostly Cloudy
2:55 PM 77.0 °F - 60.8 °F 57% 30.15 in 10.0 mi South 12.7 mph 16.1 mph N/A   Mostly Cloudy
3:15 PM 75.2 °F - 60.8 °F 61% 30.15 in 10.0 mi South 9.2 mph - N/A   Mostly Cloudy
3:35 PM 77.0 °F - 60.8 °F 57% 30.14 in 10.0 mi South 15.0 mph - N/A   Overcast
4:15 PM 75.2 °F - 60.8 °F 61% 30.14 in 10.0 mi SSE 6.9 mph - N/A   Overcast
4:35 PM 73.4 °F - 60.8 °F 65% 30.14 in 10.0 mi SSE 10.4 mph - N/A   Overcast
4:55 PM 73.4 °F - 60.8 °F 65% 30.13 in 10.0 mi SSE 8.1 mph - N/A   Mostly Cloudy
5:15 PM 73.4 °F - 60.8 °F 65% 30.13 in 10.0 mi SSE 5.8 mph - N/A   Overcast
5:35 PM 71.6 °F - 60.8 °F 69% 30.13 in 10.0 mi SSE 5.8 mph - N/A   Overcast
5:55 PM 71.6 °F - 60.8 °F 69% 30.13 in 10.0 mi SSE 4.6 mph - N/A   Overcast
6:15 PM 69.8 °F - 59.0 °F 68% 30.12 in 10.0 mi SSE 3.5 mph - N/A   Mostly Cloudy
6:35 PM 68.0 °F - 60.8 °F 78% 30.12 in 10.0 mi SE 3.5 mph - N/A   Scattered Clouds
6:55 PM 66.2 °F - 59.0 °F 78% 30.13 in 10.0 mi SE 4.6 mph - N/A   Mostly Cloudy
7:15 PM 66.2 °F - 59.0 °F 78% 30.12 in 10.0 mi SSE 4.6 mph - N/A   Mostly Cloudy
7:35 PM 68.0 °F - 60.8 °F 78% 30.12 in 10.0 mi SE 5.8 mph - N/A   Overcast
7:55 PM 68.0 °F - 60.8 °F 78% 30.12 in 10.0 mi SE 9.2 mph - N/A   Overcast
8:15 PM 68.0 °F - 60.8 °F 78% 30.12 in 10.0 mi SSE 9.2 mph - N/A   Mostly Cloudy
8:55 PM 68.0 °F - 60.8 °F 78% 30.11 in 10.0 mi SSE 9.2 mph - N/A   Mostly Cloudy
9:15 PM 66.2 °F - 60.8 °F 83% 30.11 in 10.0 mi SE 13.8 mph - N/A   Scattered Clouds
9:35 PM 66.2 °F - 62.6 °F 88% 30.12 in 10.0 mi SSE 11.5 mph 18.4 mph N/A   Clear
9:55 PM 66.2 °F - 60.8 °F 83% 30.13 in 10.0 mi SSE 8.1 mph - N/A   Clear
10:15 PM 64.4 °F - 62.6 °F 94% 30.12 in 10.0 mi SSE 8.1 mph - N/A   Scattered Clouds
10:35 PM 64.4 °F - 62.6 °F 94% 30.11 in 10.0 mi SSE 10.4 mph 16.1 mph N/A   Scattered Clouds
10:55 PM 64.4 °F - 62.6 °F 94% 30.11 in 10.0 mi SSE 9.2 mph 16.1 mph N/A   Clear
11:15 PM 64.4 °F - 62.6 °F 94% 30.11 in 10.0 mi SSE 8.1 mph - N/A   Clear
11:35 PM 64.4 °F - 62.6 °F 94% 30.11 in 10.0 mi SSE 10.4 mph - N/A   Clear
11:55 PM 64.4 °F - 62.6 °F 94% 30.10 in 10.0 mi SSE 9.2 mph - N/A   Clear